DW4558 Weather Reports


time (UTC)temp
F
wind
direction
speed
knots
gust
knots
rain 1hr
in
rain 24hr
in
rain mn
in
humidity
%
barometer
mb
20260507094554 41 268 4.3 12.2 0.00 0.55 0.00 95 1003.4
20260507093058 40 203 5.2 13.9 0.00 0.55 0.00 95 1003.4
20260507091554 40 240 7.0 12.2 0.00 0.55 0.00 95 1003.6
20260507090048 40 244 7.0 12.2 0.00 0.55 0.00 95 1003.7
20260507084547 40 252 7.0 13.9 0.00 0.55 0.00 95 1003.9
20260507083044 41 229 7.0 12.2 0.00 0.55 0.00 95 1004.0
20260507081543 41 248 8.7 13.0 0.00 0.55 0.00 95 1003.8
20260507080044 41 233 6.1 12.2 0.00 0.55 0.00 96 1004.0
20260507074539 41 254 5.2 10.4 0.00 0.55 0.00 96 1004.0
20260507073039 41 227 7.0 13.0 0.00 0.55 0.00 96 1004.1
20260507071539 41 242 7.8 14.8 0.00 0.55 0.00 96 1003.9
20260507070036 41 259 7.0 13.9 0.00 0.55 0.00 97 1003.9
20260507064534 41 248 7.0 14.8 0.00 0.55 0.00 97 1003.9
20260507063042 41 238 7.8 13.0 0.00 0.55 0.00 97 1004.0
20260507061533 41 244 6.1 12.2 0.00 0.55 0.00 97 1004.1
20260507060046 41 237 8.7 13.9 0.00 0.55 0.00 97 1004.1
20260507054538 42 246 7.8 12.2 0.00 0.55 0.00 97 1004.3
20260507053028 42 264 7.0 16.5 0.00 0.55 0.00 97 1004.4
20260507051526 42 258 7.8 13.0 0.00 0.55 0.00 97 1004.5
20260507050024 42 236 6.1 12.2 0.00 0.55 0.00 97 1004.4
20260507044540 42 272 4.3 10.4 0.00 0.55 0.00 97 1004.6
20260507043017 42 254 7.0 9.6 0.00 0.55 0.00 97 1004.6
20260507041514 42 240 4.3 12.2 0.00 0.55 0.00 97 1004.6
20260507040011 42 248 7.0 13.0 0.00 0.55 0.00 97 1005.2
20260507034509 42 238 7.0 12.2 0.00 0.55 0.55 97 1005.3
20260507033008 42 253 5.2 8.7 0.00 0.55 0.55 97 1005.3
20260507031506 42 236 5.2 9.6 0.00 0.55 0.55 97 1005.5
20260507030005 42 252 5.2 9.6 0.00 0.55 0.55 97 1005.4
20260507024503 42 251 4.3 6.1 0.00 0.55 0.55 97 1005.3
20260507023003 42 237 3.5 5.2 0.00 0.55 0.55 97 1005.5
20260507021501 42 240 3.5 7.0 0.00 0.55 0.55 97 1005.5
20260507020104 42 249 1.7 4.3 0.00 0.55 0.55 97 1005.4
20260507014600 42 230 2.6 4.3 0.00 0.56 0.55 97 1005.4
20260507013103 42 246 1.7 7.0 0.00 0.56 0.55 97 1005.8
20260507011559 42 254 2.6 7.8 0.00 0.56 0.55 97 1005.9
20260507010057 42 236 3.5 7.8 0.00 0.56 0.55 97 1006.1
20260507004559 42 217 2.6 6.1 0.00 0.56 0.55 97 1006.3
20260507003055 43 219 2.6 5.2 0.00 0.56 0.55 97 1006.1
20260507001557 43 238 3.5 7.0 0.00 0.56 0.55 97 1006.3
20260507000055 43 243 3.5 5.2 0.00 0.56 0.55 97 1006.0
20260506234555 43 245 3.5 7.0 0.01 0.56 0.55 97 1006.2
20260506233054 43 233 2.6 6.1 0.02 0.56 0.55 97 1006.2
20260506231553 43 259 3.5 7.0 0.02 0.56 0.55 97 1006.1
20260506230055 43 243 1.7 4.3 0.02 0.56 0.55 97 1005.9
20260506224602 43 244 1.7 4.3 0.01 0.63 0.54 97 1006.0
20260506223052 43 290 1.7 6.1 0.00 0.62 0.54 97 1006.0
20260506221554 43 259 1.7 7.0 0.00 0.62 0.54 97 1006.1
20260506220051 43 286 4.3 7.0 0.01 0.62 0.54 97 1006.3
20260506214606 43 283 1.7 6.1 0.01 0.62 0.54 97 1006.2
20260506213050 43 290 1.7 6.1 0.01 0.62 0.54 97 1006.3
20260506211549 43 267 1.7 7.0 0.01 0.62 0.54 97 1006.4
20260506210052 43 283 4.3 5.2 0.00 0.61 0.53 97 1006.5
20260506204556 43 288 2.6 5.2 0.01 0.61 0.53 97 1006.4
20260506203051 43 291 5.2 7.8 0.01 0.61 0.53 97 1006.3
20260506201550 43 288 5.2 8.7 0.01 0.61 0.53 97 1006.4
20260506200047 43 272 6.1 8.7 0.02 0.61 0.53 97 1006.6
20260506194559 44 286 7.0 8.7 0.02 0.61 0.52 97 1006.7
20260506193049 43 269 7.8 10.4 0.04 0.61 0.52 97 1006.8
20260506191546 43 306 3.5 7.8 0.06 0.61 0.52 97 1006.8
20260506190045 43 271 4.3 8.7 0.07 0.60 0.51 97 1007.0
20260506184545 43 261 6.1 8.7 0.07 0.65 0.50 97 1007.1
20260506183044 43 284 7.0 10.4 0.07 0.64 0.48 97 1007.2
20260506181546 43 279 5.2 8.7 0.07 0.61 0.46 97 1007.4
20260506180047 43 261 4.3 8.7 0.07 0.60 0.44 97 1007.6
20260506174540 43 248 4.3 8.7 0.07 0.61 0.43 96 1007.6
20260506173042 44 270 7.8 10.4 0.08 0.60 0.41 96 1007.6
20260506171551 44 279 7.0 10.4 0.08 0.56 0.39 97 1007.7
20260506170040 43 261 5.2 10.4 0.09 0.56 0.37 96 1007.9
20260506164536 44 252 7.8 11.3 0.10 0.54 0.35 96 1008.0
20260506163042 44 273 5.2 10.4 0.10 0.52 0.33 96 1008.2
20260506161536 44 286 3.5 9.6 0.11 0.50 0.31 96 1008.2
20260506160033 44 235 6.1 11.3 0.11 0.47 0.28 96 1008.5
20260506154531 44 225 6.1 8.7 0.10 0.44 0.25 96 1008.7
20260506153032 44 291 7.8 13.0 0.09 0.41 0.22 96 1009.0
20260506151533 44 219 5.2 10.4 0.08 0.38 0.19 95 1008.6
20260506150025 44 249 9.6 15.6 0.07 0.36 0.17 95 1008.5
20260506144523 45 277 6.1 13.0 0.07 0.34 0.15 95 1008.5
20260506143022 45 237 9.6 14.8 0.06 0.31 0.13 95 1008.6
20260506141521 45 268 6.1 14.8 0.06 0.30 0.11 95 1008.5
20260506140022 45 254 8.7 13.9 0.06 0.28 0.09 94 1008.4
20260506134514 46 278 11.3 20.9 0.05 0.26 0.07 94 1008.2
20260506133018 47 255 7.8 15.6 0.05 0.24 0.06 94 1008.1
20260506131516 47 270 10.4 15.6 0.05 0.24 0.05 93 1007.8
20260506130006 47 254 10.4 15.6 0.03 0.22 0.03 92 1007.9
20260506124504 47 259 7.0 16.5 0.02 0.21 0.02 91 1008.0
20260506123003 48 261 7.8 18.2 0.01 0.20 0.01 89 1008.0
20260506121558 49 291 10.4 20.9 0.00 0.19 0.00 88 1007.9
20260506120055 50 229 10.4 15.6 0.00 0.19 0.00 87 1007.5
20260506114600 50 241 9.6 17.4 0.00 0.19 0.00 86 1007.4
20260506113058 50 216 7.0 16.5 0.00 0.19 0.00 86 1007.0
20260506111551 50 234 7.0 14.8 0.00 0.19 0.00 87 1006.8
20260506110048 49 248 11.3 17.4 0.00 0.19 0.00 86 1006.8
20260506104554 50 238 11.3 19.1 0.00 0.19 0.00 86 1006.8
20260506103043 50 251 8.7 16.5 0.00 0.19 0.00 86 1006.7
20260506101548 50 271 8.7 18.2 0.00 0.19 0.00 85 1006.4
20260506100040 50 237 7.0 20.0 0.00 0.19 0.00 85 1006.4